[[{"header":{"parameterUnit":"m.s-1","parameterCategory":1,"la1":30.2991,"la2":30.254,"lo1":-89.0895,"lo2":-89.0444,"dy":0.0017,"dx":0.0017,"nx":28,"ny":28,"refTime":"2025-11-17T09:00:00:Z","depth":0,"parameterNumber":2,"parameterNumberName":"U-component_of_WINDS"},"data":[0,0,0,0,0,0,0,0,0,0,0,0,0,0,0,0,0,0,0,0,0,0,0,0,0,0,0,0,0,0,0,0,0,0,0,0,0,0,0,0,0,0,0,0,0,0,0,0,0,0,0,0,0,0,0,0,0,0,1.8298,1.8299,0,1.8403,1.8404,1.8405,1.8407,1.8405,1.8404,1.8403,1.851,1.8514,1.8518,0,0,0,0,0,0,0,0,0,0,0,0,0,1.81,1.8104,1.8298,1.8299,1.8301,1.8403,1.8404,1.8405,1.8407,1.8405,1.8404,1.8402,1.8509,1.8513,1.8518,0,0,0,0,0,0,0,0,0,0,0,0,0,1.8194,1.8105,1.8298,1.8314,1.8316,1.8402,1.8404,1.8406,1.8407,1.8405,1.8403,1.8401,1.8507,1.8513,1.8519,1.8597,0,0,1.8538,1.854,0,0,0,0,0,0,0,0,1.8188,1.8201,1.831,1.8313,1.8316,1.839,1.8374,1.847,1.8408,1.8373,1.8403,1.84,1.8472,1.848,1.8504,1.8602,1.8606,1.8538,1.8542,1.8545,1.8546,0,0,0,0,0,0,0,1.8182,1.8196,1.8339,1.8312,1.8315,1.8316,1.8327,1.8392,1.8432,1.8375,1.8376,1.8388,1.8473,1.8498,1.8507,1.8608,1.8538,1.8544,1.8547,1.855,1.8775,1.8778,0,0,0,0,0,0,1.8172,1.8191,1.8336,1.8343,1.8246,1.8321,1.8333,1.8368,1.8431,1.8439,1.839,1.8388,1.8489,1.85,1.8511,1.8606,1.8545,1.855,1.8554,1.8773,1.8776,1.8778,0,0,0,0,0,0,1.8168,1.8185,1.8332,1.8267,1.8286,1.8326,1.8365,1.8371,1.8397,1.8442,1.8449,1.8409,1.8488,1.8502,1.8576,1.861,1.8553,1.8559,1.877,1.8774,1.8777,1.8798,0,0,0,0,0,0,1.8162,1.8183,1.8213,1.8268,1.8289,1.8395,1.8367,1.8374,1.8407,1.8406,1.8462,1.8469,1.8487,1.8566,1.8582,1.8618,1.8563,1.8767,1.8772,1.8776,1.8794,1.8802,1.8808,0,0,0,0,0,1.8155,1.8214,1.8214,1.8232,1.8327,1.8397,1.8409,1.8429,1.841,1.844,1.847,1.8467,1.8604,1.8574,1.8591,1.8629,1.8765,1.8771,1.8776,1.8791,1.88,1.8808,0,0,0,0,0,0,1.8162,1.8222,1.8222,1.8301,1.8344,1.8397,1.8435,1.8437,1.8486,1.8483,1.8506,1.8518,1.8591,1.8618,1.8583,1.8708,1.8682,1.8691,1.8688,1.8697,1.8704,1.8696,1.8569,0,0,0,0,0,1.8173,1.8225,1.8274,1.8339,1.836,1.8394,1.8425,1.8437,1.8482,1.85,1.8535,1.8579,1.8632,1.8666,1.8717,1.8798,1.8811,1.8833,1.884,1.8846,1.8853,1.8899,1.8909,1.8795,1.8795,1.8795,0,0,1.8196,1.8235,1.8266,1.8341,1.8375,1.8429,1.8409,1.8466,1.8506,1.8509,1.858,1.8607,1.8658,1.8736,1.8772,1.876,1.8887,1.8852,1.8856,1.8861,1.8905,1.8916,1.8925,1.8799,1.8798,1.8798,0,0,1.8264,1.8299,1.8357,1.8392,1.8445,1.8467,1.8481,1.8534,1.8553,1.8625,1.8629,1.8677,1.8767,1.8803,1.8834,1.8918,1.8918,1.8934,1.8969,1.9014,1.9023,1.9031,1.9062,1.9072,1.8941,1.8941,1.8941,0,1.8286,1.8366,1.8386,1.8444,1.8477,1.8483,1.8542,1.8576,1.8642,1.8665,1.8651,1.8766,1.8801,1.8887,1.8908,1.8932,1.895,1.8927,1.902,1.9028,1.9036,1.9065,1.9077,1.8943,1.8943,1.8943,1.8943,0,1.839,1.8445,1.8486,1.8551,1.8589,1.8647,1.8677,1.8713,1.8722,1.8746,1.8821,1.8863,1.8923,1.8945,1.8954,1.9033,1.9025,1.9015,1.8989,1.9048,1.9076,1.9088,1.8945,1.8945,1.8944,1.8944,0,0,1.8464,1.8541,1.8555,1.8585,1.8645,1.8688,1.8747,1.8806,1.8837,1.8884,1.8934,1.9011,1.9003,1.9038,1.9051,1.9091,1.9156,1.9077,1.9078,1.909,1.9247,1.9253,1.9266,1.9156,1.9158,1.916,1.9243,0,1.8539,1.8643,1.8664,1.8755,1.8807,1.8815,1.8866,1.8908,1.8933,1.8981,1.9009,1.9063,1.9049,1.907,1.9109,1.9139,1.9187,1.9134,1.9203,1.9206,1.919,1.928,1.9287,1.9363,1.9254,1.9255,1.9257,0,1.864,1.8689,1.8785,1.8839,1.8861,1.8907,1.8964,1.901,1.9059,1.9074,1.9113,1.9123,1.9185,1.9157,1.9244,1.9207,1.9237,1.9256,1.926,1.9267,1.9234,1.929,1.9387,1.9398,1.9274,1.9273,1.9272,0,1.8684,1.8775,1.8844,1.887,1.8934,1.8966,1.8995,1.9041,1.9076,1.9126,1.9149,1.9205,1.9236,1.928,1.9305,1.9282,1.939,1.9364,1.9405,1.9404,1.9427,1.9425,1.953,1.9446,1.9446,1.9446,1.9446,0,1.8765,1.8824,1.8866,1.8908,1.8974,1.8999,1.9064,1.9092,1.9134,1.9183,1.9193,1.9238,1.9268,1.9319,1.9339,1.9408,1.9422,1.9436,1.9441,1.9435,1.9433,1.9455,1.945,1.9449,1.9448,1.9448,1.9447,0,1.8826,1.8856,1.8932,1.8988,1.9003,1.9049,1.9097,1.9139,1.9165,1.9226,1.9242,1.9282,1.9342,1.9372,1.9446,1.9459,1.9537,1.9539,1.9521,1.9523,1.9562,1.9558,1.9684,1.9703,1.9607,1.9608,1.9609,0,1.8875,1.8921,1.8981,1.9015,1.9044,1.9098,1.9133,1.916,1.9197,1.9257,1.9292,1.9352,1.9402,1.9497,1.9533,1.959,1.9593,1.9634,1.9601,1.9595,1.9594,1.959,1.9595,1.9639,1.964,1.964,1.9641,0,1.896,1.8973,1.9024,1.9081,1.9124,1.917,1.9215,1.9242,1.9276,1.9318,1.9379,1.9417,1.9494,1.9554,1.9614,1.9644,1.9649,1.9651,1.9664,1.9658,1.9646,1.9653,1.9536,1.9648,1.9647,1.9647,1.9646,1.9646,1.9017,1.9058,1.9107,1.9164,1.9201,1.9244,1.9286,1.9318,1.9369,1.9434,1.9446,1.9512,1.9561,1.9642,1.9674,1.9726,1.9717,1.9735,1.974,1.9744,1.9746,1.9638,1.9737,1.9737,1.9737,1.9737,1.9736,0,1.9102,1.9134,1.9186,1.925,1.9295,1.9297,1.9347,1.9385,1.9442,1.9488,1.9537,1.9608,1.9667,1.9708,1.9768,1.9802,1.9806,1.9817,1.9814,1.9821,1.975,1.9733,1.9813,1.9813,1.9813,1.9813,1.9813,1.9813,1.9151,1.9221,1.924,1.9329,1.9361,1.9425,1.9454,1.9494,1.953,1.961,1.9659,1.9685,1.973,1.9793,1.9847,1.9858,1.988,1.9891,1.9901,1.9834,1.9826,1.9818,1.9803,1.9895,1.9895,1.9968,1.9969,1.9969]},{"header":{"parameterUnit":"m.s-1","parameterCategory":1,"la1":30.2991,"la2":30.254,"lo1":-89.0895,"lo2":-89.0444,"dy":0.0017,"dx":0.0017,"nx":28,"ny":28,"refTime":"2025-11-17T09:00:00:Z","depth":0,"parameterNumber":3,"parameterNumberName":"V-component_of_WINDS"},"data":[0,0,0,0,0,0,0,0,0,0,0,0,0,0,0,0,0,0,0,0,0,0,0,0,0,0,0,0,0,0,0,0,0,0,0,0,0,0,0,0,0,0,0,0,0,0,0,0,0,0,0,0,0,0,0,0,0,0,0.2013,0.2014,0,0.2057,0.2057,0.2058,0.202,0.2018,0.2017,0.2015,0.2062,0.2064,0.2067,0,0,0,0,0,0,0,0,0,0,0,0,0,0.1899,0.1901,0.2013,0.2014,0.2014,0.2056,0.2057,0.2058,0.202,0.2018,0.2017,0.2015,0.2061,0.2064,0.2067,0,0,0,0,0,0,0,0,0,0,0,0,0,0.1946,0.1902,0.2013,0.2001,0.2,0.2056,0.2057,0.2058,0.2021,0.2018,0.2016,0.2014,0.206,0.2064,0.2068,0.2139,0,0,0.208,0.2082,0,0,0,0,0,0,0,0,0.1944,0.1951,0.2002,0.2002,0.2001,0.203,0.2034,0.2085,0.2021,0.2013,0.2015,0.2013,0.2053,0.2058,0.2071,0.2142,0.2144,0.208,0.2083,0.2085,0.2086,0,0,0,0,0,0,0,0.194,0.1948,0.203,0.2003,0.2002,0.1993,0.1997,0.2043,0.2046,0.2013,0.2011,0.2016,0.2053,0.2067,0.2072,0.2144,0.208,0.2084,0.2086,0.2088,0.2276,0.2278,0,0,0,0,0,0,0.1938,0.1946,0.2029,0.2032,0.1966,0.1997,0.2002,0.2023,0.2045,0.2046,0.2018,0.2014,0.2062,0.2067,0.2073,0.2159,0.2085,0.2088,0.2091,0.2273,0.2276,0.2279,0,0,0,0,0,0,0.1936,0.1946,0.2027,0.1988,0.1998,0.2002,0.2026,0.2025,0.204,0.2049,0.2049,0.2033,0.206,0.2068,0.2123,0.216,0.209,0.2094,0.227,0.2274,0.2277,0.2331,0,0,0,0,0,0,0.1933,0.1945,0.1973,0.1989,0.2,0.2076,0.2028,0.2028,0.2047,0.2042,0.2063,0.2064,0.2059,0.2117,0.2127,0.2165,0.2097,0.2267,0.2272,0.2276,0.2326,0.2337,0.2345,0,0,0,0,0,0.1929,0.1986,0.1974,0.1984,0.2034,0.2078,0.2085,0.2077,0.205,0.2078,0.2083,0.2063,0.2154,0.2123,0.2134,0.2173,0.2264,0.227,0.2276,0.2322,0.2335,0.2345,0,0,0,0,0,0,0.1975,0.1988,0.1975,0.2039,0.2058,0.2072,0.2107,0.2091,0.2118,0.2113,0.2103,0.2108,0.2166,0.2175,0.214,0.2244,0.2205,0.2213,0.2236,0.2248,0.2258,0.2255,0.21,0,0,0,0,0,0.1993,0.2027,0.2037,0.2093,0.2103,0.2103,0.2122,0.2115,0.2134,0.2142,0.2151,0.2171,0.2204,0.2226,0.2257,0.2326,0.2331,0.2359,0.2368,0.2376,0.2384,0.2422,0.2435,0.2298,0.2298,0.2298,0,0,0.203,0.2041,0.2064,0.2103,0.2116,0.2153,0.211,0.2151,0.2178,0.2148,0.2201,0.2209,0.223,0.2293,0.2321,0.2302,0.2422,0.2383,0.239,0.2393,0.2429,0.2442,0.2454,0.2302,0.2301,0.23,0,0,0.2117,0.2128,0.2176,0.219,0.2211,0.221,0.2222,0.2238,0.2242,0.2294,0.2273,0.2305,0.2362,0.2378,0.2394,0.2485,0.2468,0.2495,0.2546,0.2583,0.2594,0.2603,0.2637,0.2649,0.2503,0.2503,0.2503,0,0.2161,0.2214,0.2203,0.2245,0.2263,0.2236,0.2285,0.23,0.233,0.2343,0.232,0.2391,0.2404,0.247,0.2492,0.2505,0.2519,0.2494,0.2593,0.2603,0.2611,0.2644,0.2656,0.2506,0.2506,0.2505,0.2505,0,0.2268,0.2305,0.2342,0.2371,0.2392,0.2438,0.2434,0.2457,0.2447,0.2449,0.2503,0.2517,0.255,0.2565,0.2556,0.263,0.2618,0.2594,0.2556,0.2628,0.2658,0.267,0.2511,0.251,0.2509,0.2508,0,0,0.2388,0.2408,0.2422,0.2435,0.2455,0.2484,0.2528,0.2559,0.258,0.2601,0.2638,0.2686,0.2665,0.2683,0.2675,0.2707,0.278,0.268,0.268,0.2699,0.2864,0.2883,0.2897,0.2767,0.277,0.2771,0.2862,0,0.2476,0.2552,0.2543,0.2616,0.2651,0.2625,0.2663,0.268,0.2683,0.2713,0.2715,0.275,0.2718,0.2729,0.2759,0.2764,0.2813,0.2757,0.2803,0.2805,0.2801,0.2913,0.2933,0.3019,0.2874,0.2876,0.2877,0,0.259,0.2615,0.2691,0.2706,0.272,0.2755,0.2783,0.2812,0.283,0.2829,0.2848,0.2835,0.2879,0.2837,0.2899,0.2861,0.2879,0.2884,0.2887,0.2893,0.2848,0.2924,0.3046,0.3059,0.2896,0.2894,0.2893,0,0.2672,0.2724,0.2776,0.2788,0.2805,0.283,0.2839,0.2855,0.2874,0.2899,0.2911,0.2941,0.2958,0.2981,0.2975,0.2945,0.3039,0.2996,0.3041,0.3041,0.3064,0.3063,0.3192,0.3072,0.3071,0.3071,0.3071,0,0.2773,0.2822,0.2813,0.2846,0.2899,0.2887,0.2941,0.2946,0.296,0.2993,0.2972,0.3004,0.2994,0.3025,0.3021,0.3074,0.3081,0.3082,0.3081,0.3086,0.3086,0.3099,0.3094,0.3074,0.3074,0.3073,0.3072,0,0.2875,0.2871,0.2927,0.2938,0.2942,0.2981,0.2991,0.3022,0.3022,0.3064,0.3074,0.3074,0.311,0.3106,0.3146,0.3144,0.3209,0.3199,0.3203,0.3202,0.3247,0.3244,0.3392,0.3411,0.3276,0.3277,0.3278,0,0.2941,0.2978,0.2992,0.3013,0.3023,0.3057,0.3076,0.3065,0.3087,0.3109,0.3138,0.3171,0.3198,0.3257,0.3261,0.3292,0.3284,0.3334,0.3289,0.3292,0.3287,0.3286,0.329,0.3344,0.3345,0.3346,0.3347,0,0.306,0.3055,0.3084,0.3112,0.3136,0.3158,0.3177,0.3195,0.3186,0.3212,0.3248,0.3268,0.3309,0.3343,0.3372,0.3381,0.3364,0.3361,0.3373,0.338,0.3381,0.3383,0.323,0.3358,0.3357,0.3357,0.3356,0.3355,0.3147,0.3178,0.3193,0.3226,0.3239,0.3258,0.3288,0.3291,0.332,0.3352,0.3344,0.3385,0.3401,0.3438,0.345,0.3482,0.3464,0.3482,0.3487,0.3492,0.3498,0.3374,0.3487,0.3487,0.3487,0.3486,0.3486,0,0.3266,0.3274,0.3304,0.3332,0.3357,0.3336,0.3357,0.338,0.3416,0.3433,0.3459,0.3501,0.3533,0.3539,0.3571,0.3595,0.3588,0.3604,0.3604,0.3606,0.3511,0.3498,0.361,0.361,0.3609,0.3609,0.3609,0.3609,0.3331,0.3383,0.3381,0.3439,0.3447,0.3487,0.35,0.3517,0.353,0.3578,0.3605,0.3608,0.362,0.3652,0.3681,0.3682,0.3695,0.3715,0.3713,0.3625,0.3613,0.3601,0.3589,0.3717,0.3718,0.3806,0.3806,0.3807]}]]